Voltar ao catálogo

STARLINK-33617

AtivoComunicaçõesVLEO
NORAD 63373·PAYLOAD·🇺🇸 United States

Lançado Mar 26, 2025 de Vandenberg Space Force Base

Loading…

Próximas Passagens (próximas 24 horas)

TLE

AtualizadoSource: CelesTrak SupGP

Época: Sep 15, 2026, 02:46 UTC

1 63373C 25063L   26258.11576389 -.00035663  00000+0 -10536-2 0  2580
2 63373  53.1578 247.1507 0001423  92.4280  70.5845 15.34411500    18

Acompanhe STARLINK-33617 em tempo real com AllMySat

Download on the App Store